Weather History for Spokane, WA

Change the Weather History Date:

Friday, October 5, 2012

  Actual Average Record
Temperature  
Mean Temperature 46 °F 52 °F  
Max Temperature 59 °F 64 °F 85 °F (1889)
Min Temperature 32 °F 40 °F 21 °F (1974)
Degree Days  
Heating Degree Days 19 13  
Month to date heating degree days 65 60  
Since 1 July heating degree days 167 308  
Cooling Degree Days 0 0  
Month to date cooling degree days 0 0  
Year to date cooling degree days 535 449  
Growing Degree Days 0 (Base 50)    
Moisture  
Dew Point 19 °F    
Average Humidity 41    
Maximum Humidity 63    
Minimum Humidity 19    
Precipitation  
Precipitation 0.00 in 0.02 in 0.95 in (1882)
Month to date precipitation 0.00 0.12  
Year to date precipitation 13.96 10.90  
Snow  
Snow 0.00 in 0.00 in T in (1957)
Month to date snowfall 0.0 0.0  
Since 1 July snowfall 0.0 0.0  
Since 1 September snowfall 0.0 0.0  
Snow Depth 0.00 in    
Sea Level Pressure  
Sea Level Pressure 30.36 in    
Wind  
Wind Speed 5 mph (NE)    
Max Wind Speed 14 mph    
Max Gust Speed 18 mph    
Visibility 10 miles    
Events      
T = Trace of Precipitation, MM = Missing Value Source: NWS Daily Summary

Daily Weather History Graph

Daily Weather History Graph

Search for Another Location

Airport:

Trip Planner

Search our weather history database for the weather conditions in past years. The results will help you decide how hot, cold, wet, or windy it might be!

Date:

Astronomy

Oct. 05, 2012 Rise Set
Actual Time 6:55 AM PDT 6:20 PM PDT
Civil Twilight 6:24 AM PDT 6:50 PM PDT
Nautical Twilight 5:49 AM PDT 7:26 PM PDT
Astronomical Twilight 5:12 AM PDT 8:02 PM PDT
Moon 9:27 PM PDT (10/5) 12:27 PM PDT (10/5)
Length of Visible Light 12h 26m
Length of Day
11h 24m
Waning Gibbous, 73% of the Moon is Illuminated
Oct 5
Waning Gibbous
Oct 8
Last Quarter
Oct 15
New
Oct 21
First Quarter
Oct 29
Full

Hourly Weather History & Observations

Time (PDT) Temp. Windchill Dew Point Humidity Pressure Visibility Wind Dir Wind Speed Gust Speed Precip Events Conditions
12:53 AM 39.0 °F 36.8 °F 18.0 °F 43% 30.34 in 10.0 mi NNE 3.5 mph - N/A   Clear
1:53 AM 37.0 °F - 17.1 °F 44% 30.35 in 10.0 mi Calm Calm - N/A   Clear
2:53 AM 35.1 °F 32.2 °F 17.1 °F 48% 30.35 in 10.0 mi NE 3.5 mph - N/A   Clear
3:53 AM 35.1 °F 32.2 °F 19.9 °F 54% 30.35 in 10.0 mi NE 3.5 mph - N/A   Clear
4:53 AM 36.0 °F 31.1 °F 23.0 °F 59% 30.35 in 10.0 mi NE 5.8 mph - N/A   Clear
5:53 AM 33.1 °F 28.7 °F 19.9 °F 59% 30.37 in 10.0 mi NE 4.6 mph - N/A   Clear
6:53 AM 32.0 °F 26.4 °F 21.0 °F 64% 30.39 in 10.0 mi NNE 5.8 mph - N/A   Clear
7:53 AM 34.0 °F 31.0 °F 21.0 °F 59% 30.40 in 10.0 mi NNE 3.5 mph - N/A   Clear
8:53 AM 39.2 °F 34.2 °F 23.0 °F 52% 30.38 in 10.0 mi NE 6.9 mph - N/A   Clear
9:53 AM 43.0 °F 38.8 °F 23.0 °F 45% 30.42 in 10.0 mi NE 6.9 mph - N/A   Clear
10:53 AM 48.0 °F - 23.0 °F 37% 30.41 in 10.0 mi NE 8.1 mph - N/A   Clear
11:53 AM 52.0 °F - 21.0 °F 30% 30.40 in 10.0 mi ENE 11.5 mph - N/A   Clear
12:53 PM 55.0 °F - 16.0 °F 22% 30.38 in 10.0 mi NE 8.1 mph 16.1 mph N/A   Clear
1:53 PM 57.0 °F - 18.0 °F 22% 30.36 in 10.0 mi NE 8.1 mph - N/A   Partly Cloudy
2:53 PM 57.9 °F - 17.1 °F 20% 30.34 in 10.0 mi Variable 6.9 mph - N/A   Partly Cloudy
3:53 PM 57.9 °F - 15.1 °F 19% 30.34 in 10.0 mi NNE 10.4 mph 18.4 mph N/A   Partly Cloudy
4:53 PM 57.2 °F - 15.8 °F 20% 30.32 in 10.0 mi ENE 8.1 mph 17.3 mph N/A   Partly Cloudy
5:53 PM 55.4 °F - 15.8 °F 21% 30.33 in 10.0 mi NNE 8.1 mph - N/A   Partly Cloudy
6:53 PM 51.1 °F - 16.0 °F 25% 30.34 in 10.0 mi NE 4.6 mph - N/A   Clear
7:53 PM 51.1 °F - 16.0 °F 25% 30.34 in 10.0 mi East 4.6 mph - N/A   Clear
8:53 PM 50.0 °F - 17.1 °F 27% 30.34 in 10.0 mi Calm Calm - N/A   Clear
9:53 PM 46.0 °F 44.8 °F 17.1 °F 31% 30.34 in 10.0 mi NE 3.5 mph - N/A   Clear
10:53 PM 45.0 °F - 18.0 °F 34% 30.34 in 10.0 mi Calm Calm - N/A   Clear
11:53 PM 37.9 °F - 17.1 °F 43% 30.35 in 10.0 mi Calm Calm - N/A   Clear